This demonstration page uses our WeatherBlox Daily Observations layout. Learn more.

Left ArrowRight Arrow

41.55636, -103.73856

Hourly Observations for July 28, 2015

Temp ( °F °C ) Dew Point ( °F °C ) Humidity (%) Winds ( mph kmh ) Pressure ( in mb ) Visibility ( mi km ) Precip ( " mm )
12:53 am 00:53 Clear 63 17.2 52 11.1 68 68 NW 8 13 29.78 1008 10 16.0934 0 0
1:53 am 01:53 Clear 62 16.7 52 11.1 70 70 NNW 20 31 29.81 1009 10 16.0934 0 0
2:53 am 02:53 Clear 59 15 49 9.4 69 69 NW 9 15 29.84 1010 10 16.0934 0 0
3:53 am 03:53 Clear 56 13.3 48 8.9 75 75 WNW 8 13 29.87 1011 10 16.0934 0 0
4:53 am 04:53 Clear 55 12.8 48 8.9 77 77 WNW 8 13 29.89 1012 10 16.0934 0 0
5:53 am 05:53 Sunny 54 12.2 48 8.9 80 80 undefined N/A 29.93 1014 10 16.0934 0 0
6:53 am 06:53 Sunny 56 13.3 50 10 81 81 NW 3 6 29.96 1015 10 16.0934 0 0
7:53 am 07:53 Sunny 61 16.1 51 10.6 70 70 WNW 8 13 29.97 1015 10 16.0934 0 0
8:53 am 08:53 Sunny 65 18.3 50 10 59 59 NW 6 9 29.97 1015 10 16.0934 0 0
9:53 am 09:53 Sunny 71 21.7 43 6.1 36 36 WNW 13 20 29.96 1015 10 16.0934 0 0
10:53 am 10:53 Sunny 74 23.3 37 2.8 26 26 WNW 16 26 29.97 1015 10 16.0934 0 0
11:53 am 11:53 Sunny 76 24.4 35 1.7 23 23 WNW 16 26 29.98 1015 10 16.0934 0 0
12:53 pm 12:53 Sunny 77 25 33 0.6 20 20 W 13 20 30 1016 10 16.0934 0 0
1:53 pm 13:53 Sunny 79 26.1 31 -0.6 17 17 N 12 19 29.99 1016 10 16.0934 0 0
2:53 pm 14:53 Sunny 80 26.7 30 -1.1 16 16 WNW 7 11 29.98 1015 10 16.0934 0 0
3:53 pm 15:53 Sunny 82 27.8 29 -1.7 14 14 WNW 6 9 29.98 1015 10 16.0934 0 0
4:53 pm 16:53 Sunny 83 28.3 27 -2.8 13 13 Calm 29.98 1015 10 16.0934 0 0
5:53 pm 17:53 Sunny 83 28.3 31 -0.6 15 15 NW 5 7 29.98 1015 10 16.0934 0 0
6:53 pm 18:53 Sunny 81 27.2 30 -1.1 16 16 Calm 29.99 1016 10 16.0934 0 0
7:53 pm 19:53 Sunny 71 21.7 51 10.6 49 49 E 7 11 30.03 1017 10 16.0934 0 0
8:53 pm 20:53 Clear 66 18.9 48 8.9 52 52 NNE 6 9 30.07 1018 10 16.0934 0 0
9:53 pm 21:53 Clear 62 16.7 44 6.7 52 52 NNE 9 15 30.09 1019 10 16.0934 0 0
10:53 pm 22:53 Clear 58 14.4 44 6.7 60 60 NNE 9 15 30.12 1020 10 16.0934 0 0
11:53 pm 23:53 Clear 58 14.4 39 3.9 50 50 Calm 30.13 1020 10 16.0934 0 0

Powered by AerisWeather